Location: Aulus
(42.7909°N, 1.3399°E)
Time: 13:17:59
(UTC+00:00)

deb Kosmos- 1980 - Pass Details

Date: 17 October 2025
Orbit: 834 x 854 km, 71.0° (Epoch: 16 November)

Event Time Altitude Azimuth Distance (km) Brightness Sun altitude
Rises 21:24:22 0° 323° (NW) 3,397 ? -45.6°
Reaches altitude 10° 21:27:12 10° 311° (NW) 2,455 ? -46.0°
Enters shadow 21:27:39 12° 308° (NW) 2,320 ? -46.0°
